Time,TemperatureF,DewpointF,PressureIn,WindDirection,WindDirectionDegrees,WindSpeedMPH,WindSpeedGustMPH,Humidity,HourlyPrecipIn,Conditions,Clouds,dailyrainin,SoftwareType,DateUTC
2013-01-31 00:03:00,45.7,44.6,30.40,SSW,198,0.0,7.0,96,0.02,,---,0.37,VWS V13.00,2013-01-31 08:03:00,
2013-01-31 00:08:00,45.7,44.6,30.40,SSW,213,0.0,0.0,96,0.01,,---,0.01,VWS V13.00,2013-01-31 08:08:00,
2013-01-31 00:13:00,45.7,44.6,30.40,SSW,199,0.0,4.0,96,0.02,,---,0.01,VWS V13.00,2013-01-31 08:13:00,
2013-01-31 00:18:00,45.7,44.6,30.40,WSW,243,5.0,7.0,96,0.02,,---,0.01,VWS V13.00,2013-01-31 08:18:00,
2013-01-31 00:23:00,45.7,44.6,30.40,SSE,157,0.0,7.0,96,0.02,,---,0.01,VWS V13.00,2013-01-31 08:23:00,
2013-01-31 00:28:00,45.7,44.6,30.40,SW,236,0.0,7.0,96,0.02,,---,0.01,VWS V13.00,2013-01-31 08:28:00,
2013-01-31 00:33:00,45.7,44.6,30.40,South,185,0.0,7.0,96,0.02,,---,0.01,VWS V13.00,2013-01-31 08:33:00,
2013-01-31 00:38:00,45.8,44.7,30.41,WSW,237,1.0,4.0,96,0.01,,---,0.01,VWS V13.00,2013-01-31 08:38:00,
2013-01-31 00:43:00,45.8,44.7,30.41,South,179,0.0,4.0,96,0.01,,---,0.01,VWS V13.00,2013-01-31 08:43:00,
2013-01-31 00:48:00,45.8,44.7,30.41,SW,230,2.0,4.0,96,0.01,,---,0.01,VWS V13.00,2013-01-31 08:48:00,
2013-01-31 00:53:00,45.8,44.7,30.41,SW,220,0.0,4.0,96,0.01,,---,0.01,VWS V13.00,2013-01-31 08:53:00,
2013-01-31 00:58:00,45.8,44.7,30.41,SW,220,2.0,4.0,96,0.02,,---,0.02,VWS V13.00,2013-01-31 08:58:00,
2013-01-31 01:03:00,45.8,44.7,30.41,South,188,0.0,4.0,96,0.02,,---,0.02,VWS V13.00,2013-01-31 09:03:00,
2013-01-31 01:08:00,45.8,44.7,30.41,WSW,239,0.0,2.0,96,0.02,,---,0.02,VWS V13.00,2013-01-31 09:08:00,
2013-01-31 01:13:00,45.8,44.7,30.41,SSE,168,0.0,5.0,96,0.02,,---,0.02,VWS V13.00,2013-01-31 09:13:00,
2013-01-31 01:18:00,45.8,44.7,30.41,WSW,250,1.0,5.0,96,0.02,,---,0.02,VWS V13.00,2013-01-31 09:18:00,
2013-01-31 01:23:00,45.8,44.7,30.41,SSW,208,0.0,5.0,96,0.02,,---,0.02,VWS V13.00,2013-01-31 09:23:00,
2013-01-31 01:28:00,45.8,44.7,30.41,SW,233,0.0,5.0,96,0.02,,---,0.02,VWS V13.00,2013-01-31 09:28:00,
2013-01-31 01:33:00,45.8,44.7,30.41,SSW,196,0.0,6.0,96,0.02,,---,0.02,VWS V13.00,2013-01-31 09:33:00,
2013-01-31 01:38:00,45.8,44.7,30.41,SW,224,0.0,7.0,96,0.01,,---,0.02,VWS V13.00,2013-01-31 09:38:00,
2013-01-31 01:43:00,45.8,44.7,30.41,WSW,254,2.0,7.0,96,0.01,,---,0.02,VWS V13.00,2013-01-31 09:43:00,
2013-01-31 01:48:00,45.8,44.7,30.41,West,281,0.0,7.0,96,0.01,,---,0.02,VWS V13.00,2013-01-31 09:48:00,
2013-01-31 01:53:00,45.8,44.7,30.41,WNW,294,0.0,7.0,96,0.01,,---,0.02,VWS V13.00,2013-01-31 09:53:00,
2013-01-31 01:58:00,45.8,44.7,30.41,South,179,0.0,7.0,96,0.01,,---,0.02,VWS V13.00,2013-01-31 09:58:00,
2013-01-31 02:03:00,45.8,44.7,30.41,SW,224,0.0,8.0,96,0.01,,---,0.02,VWS V13.00,2013-01-31 10:03:00,
2013-01-31 02:08:00,45.8,44.7,30.42,SSE,168,4.0,8.0,96,0.00,,---,0.02,VWS V13.00,2013-01-31 10:08:00,
2013-01-31 02:13:00,45.8,44.7,30.42,SSW,212,0.0,8.0,96,0.00,,---,0.02,VWS V13.00,2013-01-31 10:13:00,
2013-01-31 02:18:00,45.8,44.7,30.42,South,178,0.0,8.0,96,0.00,,---,0.02,VWS V13.00,2013-01-31 10:18:00,
2013-01-31 02:23:00,45.8,44.7,30.42,SSW,208,0.0,8.0,96,0.00,,---,0.02,VWS V13.00,2013-01-31 10:23:00,
2013-01-31 02:28:00,45.8,44.7,30.42,SW,215,3.0,8.0,96,0.00,,---,0.02,VWS V13.00,2013-01-31 10:28:00,
2013-01-31 02:33:00,45.8,44.7,30.42,SSE,157,0.0,8.0,96,0.00,,---,0.02,VWS V13.00,2013-01-31 10:33:00,
2013-01-31 02:38:00,45.8,44.7,30.42,SW,215,0.0,6.0,96,0.00,,---,0.02,VWS V13.00,2013-01-31 10:38:00,
2013-01-31 02:43:00,45.8,44.7,30.42,SE,140,0.0,6.0,96,0.00,,---,0.02,VWS V13.00,2013-01-31 10:43:00,
2013-01-31 02:48:00,45.8,44.7,30.42,SSW,213,0.0,6.0,96,0.00,,---,0.02,VWS V13.00,2013-01-31 10:48:00,
2013-01-31 02:53:00,45.8,44.7,30.42,South,181,2.0,6.0,96,0.00,,---,0.02,VWS V13.00,2013-01-31 10:53:00,
2013-01-31 02:58:00,45.8,44.7,30.42,SSW,193,0.0,6.0,96,0.00,,---,0.02,VWS V13.00,2013-01-31 10:58:00,
2013-01-31 03:03:00,45.8,44.7,30.42,South,191,0.0,6.0,96,0.00,,---,0.02,VWS V13.00,2013-01-31 11:03:00,
2013-01-31 03:08:00,45.7,44.6,30.42,SW,215,0.0,2.0,96,0.00,,---,0.02,VWS V13.00,2013-01-31 11:08:00,
2013-01-31 03:13:00,45.7,44.6,30.42,WSW,248,3.0,8.0,96,0.00,,---,0.02,VWS V13.00,2013-01-31 11:13:00,
2013-01-31 03:18:00,45.7,44.6,30.42,SSW,210,3.0,8.0,96,0.01,,---,0.03,VWS V13.00,2013-01-31 11:18:00,
2013-01-31 03:23:00,45.7,44.6,30.43,SSW,192,1.0,8.0,96,0.01,,---,0.03,VWS V13.00,2013-01-31 11:23:00,
2013-01-31 03:28:00,45.7,44.6,30.43,SSW,196,0.0,8.0,96,0.01,,---,0.03,VWS V13.00,2013-01-31 11:28:00,
2013-01-31 03:33:00,45.7,44.6,30.43,SSW,198,0.0,8.0,96,0.01,,---,0.03,VWS V13.00,2013-01-31 11:33:00,
2013-01-31 03:38:00,45.7,44.6,30.43,SW,230,0.0,1.0,96,0.01,,---,0.03,VWS V13.00,2013-01-31 11:38:00,
2013-01-31 03:43:00,45.7,44.6,30.43,SW,230,0.0,1.0,96,0.01,,---,0.03,VWS V13.00,2013-01-31 11:43:00,
2013-01-31 03:48:00,45.7,44.6,30.43,South,178,0.0,6.0,96,0.01,,---,0.03,VWS V13.00,2013-01-31 11:48:00,
2013-01-31 03:53:00,45.7,44.6,30.43,SSE,168,1.0,6.0,96,0.01,,---,0.03,VWS V13.00,2013-01-31 11:53:00,
2013-01-31 03:58:00,45.7,44.6,30.43,South,186,0.0,6.0,96,0.01,,---,0.03,VWS V13.00,2013-01-31 11:58:00,
2013-01-31 04:03:00,45.7,44.6,30.43,South,171,0.0,6.0,96,0.01,,---,0.03,VWS V13.00,2013-01-31 12:03:00,
2013-01-31 04:08:00,45.7,44.6,30.42,SSW,199,0.0,3.0,96,0.01,,---,0.03,VWS V13.00,2013-01-31 12:08:00,
2013-01-31 04:13:00,45.7,44.6,30.42,SW,233,1.0,5.0,96,0.01,,---,0.03,VWS V13.00,2013-01-31 12:13:00,
2013-01-31 04:18:00,45.7,44.6,30.42,SW,224,2.0,5.0,96,0.01,,---,0.03,VWS V13.00,2013-01-31 12:18:00,
2013-01-31 04:23:00,45.7,44.6,30.42,SSW,199,1.0,5.0,96,0.01,,---,0.03,VWS V13.00,2013-01-31 12:23:00,
2013-01-31 04:28:00,45.7,44.6,30.42,SW,219,1.0,5.0,96,0.01,,---,0.03,VWS V13.00,2013-01-31 12:28:00,
2013-01-31 04:33:00,45.7,44.3,30.42,South,188,0.0,5.0,95,0.01,,---,0.03,VWS V13.00,2013-01-31 12:33:00,
2013-01-31 04:38:00,45.7,44.3,30.42,SW,215,0.0,1.0,95,0.00,,---,0.03,VWS V13.00,2013-01-31 12:38:00,
2013-01-31 04:43:00,45.7,44.3,30.42,SW,216,6.0,11.0,95,0.00,,---,0.03,VWS V13.00,2013-01-31 12:43:00,
2013-01-31 04:48:00,45.7,44.3,30.42,SW,217,0.0,11.0,95,0.00,,---,0.03,VWS V13.00,2013-01-31 12:48:00,
2013-01-31 04:53:00,45.7,44.3,30.41,SSW,198,0.0,11.0,95,0.00,,---,0.03,VWS V13.00,2013-01-31 12:53:00,
2013-01-31 04:58:00,45.5,44.2,30.41,SW,229,0.0,11.0,95,0.00,,---,0.03,VWS V13.00,2013-01-31 12:58:00,
2013-01-31 05:03:00,45.5,44.2,30.41,SSE,164,0.0,11.0,95,0.00,,---,0.03,VWS V13.00,2013-01-31 13:03:00,
2013-01-31 05:08:00,45.5,44.2,30.40,SSE,164,0.0,0.0,95,0.00,,---,0.03,VWS V13.00,2013-01-31 13:08:00,
2013-01-31 05:13:00,45.4,44.0,30.40,South,185,0.0,1.0,95,0.00,,---,0.03,VWS V13.00,2013-01-31 13:13:00,
2013-01-31 05:18:00,45.4,43.8,30.40,South,185,0.0,1.0,94,0.00,,---,0.03,VWS V13.00,2013-01-31 13:18:00,
2013-01-31 05:23:00,45.2,43.6,30.40,SW,220,0.0,2.0,94,0.00,,---,0.03,VWS V13.00,2013-01-31 13:23:00,
2013-01-31 05:28:00,45.2,43.6,30.40,SSW,213,1.0,2.0,94,0.00,,---,0.03,VWS V13.00,2013-01-31 13:28:00,
2013-01-31 05:33:00,45.1,43.5,30.40,SW,216,0.0,2.0,94,0.00,,---,0.03,VWS V13.00,2013-01-31 13:33:00,
2013-01-31 05:38:00,44.9,43.3,30.40,SW,216,0.0,0.0,94,0.00,,---,0.03,VWS V13.00,2013-01-31 13:38:00,
2013-01-31 05:43:00,44.9,43.3,30.40,SSW,198,0.0,2.0,94,0.00,,---,0.03,VWS V13.00,2013-01-31 13:43:00,
2013-01-31 05:48:00,44.9,43.3,30.40,SSW,198,0.0,2.0,94,0.00,,---,0.03,VWS V13.00,2013-01-31 13:48:00,
2013-01-31 05:53:00,44.8,43.2,30.40,SSW,202,0.0,2.0,94,0.00,,---,0.03,VWS V13.00,2013-01-31 13:53:00,
2013-01-31 05:58:00,44.8,43.2,30.40,SSW,202,0.0,2.0,94,0.00,,---,0.03,VWS V13.00,2013-01-31 13:58:00,
2013-01-31 06:06:00,44.8,43.2,30.40,SSW,202,0.0,2.0,94,0.00,,---,0.03,VWS V13.00,2013-01-31 14:06:00,
2013-01-31 06:36:00,44.9,43.0,30.40,SW,215,0.0,3.0,93,0.00,,---,0.03,VWS V13.00,2013-01-31 14:36:00,
2013-01-31 07:00:00,44.8,42.6,30.40,WSW,241,2.0,5.0,92,0.00,,---,0.03,VWS V13.00,2013-01-31 15:00:00,
2013-01-31 07:05:00,44.8,42.6,30.40,WSW,243,0.0,5.0,92,0.00,,---,0.03,VWS V13.00,2013-01-31 15:05:00,
2013-01-31 07:10:00,44.8,42.6,30.40,SW,223,0.0,2.0,92,0.00,,---,0.03,VWS V13.00,2013-01-31 15:10:00,
2013-01-31 07:15:00,44.8,42.6,30.40,WSW,240,0.0,2.0,92,0.00,,---,0.03,VWS V13.00,2013-01-31 15:15:00,
2013-01-31 07:20:00,44.8,42.3,30.40,West,268,0.0,4.0,91,0.00,,---,0.03,VWS V13.00,2013-01-31 15:20:00,
2013-01-31 07:25:00,44.8,42.3,30.40,SW,233,0.0,4.0,91,0.00,,---,0.03,VWS V13.00,2013-01-31 15:25:00,
2013-01-31 07:30:00,44.8,42.3,30.40,SW,233,0.0,4.0,91,0.00,,---,0.03,VWS V13.00,2013-01-31 15:30:00,
2013-01-31 07:35:00,44.6,41.8,30.40,WSW,253,0.0,4.0,90,0.00,,---,0.03,VWS V13.00,2013-01-31 15:35:00,
2013-01-31 07:40:00,44.6,41.8,30.40,WSW,253,0.0,0.0,90,0.00,,---,0.03,VWS V13.00,2013-01-31 15:40:00,
2013-01-31 07:45:00,44.6,41.8,30.40,WSW,253,0.0,0.0,90,0.00,,---,0.03,VWS V13.00,2013-01-31 15:45:00,
2013-01-31 07:50:00,44.5,41.8,30.40,WSW,253,0.0,0.0,90,0.00,,---,0.03,VWS V13.00,2013-01-31 15:50:00,
2013-01-31 07:55:00,44.3,41.6,30.40,WSW,239,0.0,2.0,90,0.00,,---,0.03,VWS V13.00,2013-01-31 15:55:00,
2013-01-31 08:00:00,44.3,41.6,30.40,West,275,0.0,2.0,90,0.00,,---,0.03,VWS V13.00,2013-01-31 16:00:00,
2013-01-31 08:05:00,44.2,41.5,30.40,SSW,208,0.0,2.0,90,0.00,,---,0.03,VWS V13.00,2013-01-31 16:05:00,
2013-01-31 08:10:00,44.2,41.5,30.40,SSW,208,0.0,0.0,90,0.00,,---,0.03,VWS V13.00,2013-01-31 16:10:00,
2013-01-31 08:15:00,44.3,41.6,30.40,SSW,198,0.0,1.0,90,0.00,,---,0.03,VWS V13.00,2013-01-31 16:15:00,
2013-01-31 08:20:00,44.3,41.6,30.40,SSW,208,0.0,2.0,90,0.00,,---,0.03,VWS V13.00,2013-01-31 16:20:00,
2013-01-31 08:25:00,44.5,41.8,30.39,SSW,208,0.0,2.0,90,0.00,,---,0.03,VWS V13.00,2013-01-31 16:25:00,
2013-01-31 08:30:00,44.6,41.8,30.39,South,189,0.0,5.0,90,0.00,,---,0.03,VWS V13.00,2013-01-31 16:30:00,
2013-01-31 08:35:00,44.8,41.8,30.39,SSW,199,0.0,5.0,89,0.00,,---,0.03,VWS V13.00,2013-01-31 16:35:00,
2013-01-31 08:40:00,44.8,41.8,30.40,SSW,199,0.0,1.0,89,0.00,,---,0.03,VWS V13.00,2013-01-31 16:40:00,
2013-01-31 08:45:00,44.9,41.9,30.40,SSW,193,1.0,3.0,89,0.00,,---,0.03,VWS V13.00,2013-01-31 16:45:00,
2013-01-31 08:50:00,45.1,42.1,30.40,SSW,200,0.0,3.0,89,0.00,,---,0.03,VWS V13.00,2013-01-31 16:50:00,
2013-01-31 08:55:00,45.2,42.2,30.39,SSW,206,1.0,3.0,89,0.00,,---,0.03,VWS V13.00,2013-01-31 16:55:00,
2013-01-31 09:00:00,45.4,42.1,30.39,SW,230,0.0,3.0,88,0.00,,---,0.03,VWS V13.00,2013-01-31 17:00:00,
2013-01-31 09:05:00,45.5,42.2,30.39,SSW,208,0.0,3.0,88,0.00,,---,0.03,VWS V13.00,2013-01-31 17:05:00,
2013-01-31 09:10:00,45.7,42.4,30.40,SSW,200,0.0,0.0,88,0.00,,---,0.03,VWS V13.00,2013-01-31 17:10:00,
2013-01-31 09:15:00,45.8,42.2,30.40,SW,226,0.0,2.0,87,0.00,,---,0.03,VWS V13.00,2013-01-31 17:15:00,
2013-01-31 09:20:00,46.0,42.3,30.40,SW,226,0.0,2.0,87,0.00,,---,0.03,VWS V13.00,2013-01-31 17:20:00,
2013-01-31 09:25:00,46.1,42.5,30.40,SW,222,0.0,2.0,87,0.00,,---,0.03,VWS V13.00,2013-01-31 17:25:00,
2013-01-31 09:30:00,46.2,42.5,30.40,SW,222,0.0,2.0,87,0.00,,---,0.03,VWS V13.00,2013-01-31 17:30:00,
2013-01-31 09:35:00,46.4,42.8,30.40,SW,222,0.0,2.0,87,0.00,,---,0.03,VWS V13.00,2013-01-31 17:35:00,
2013-01-31 09:40:00,46.5,42.8,30.39,SW,222,0.0,0.0,87,0.00,,---,0.03,VWS V13.00,2013-01-31 17:40:00,
2013-01-31 09:45:00,46.5,42.5,30.39,SW,233,1.0,1.0,86,0.00,,---,0.03,VWS V13.00,2013-01-31 17:45:00,
2013-01-31 09:50:00,46.7,42.7,30.39,SW,217,0.0,1.0,86,0.00,,---,0.03,VWS V13.00,2013-01-31 17:50:00,
2013-01-31 09:55:00,46.8,42.8,30.39,South,191,0.0,5.0,86,0.00,,---,0.03,VWS V13.00,2013-01-31 17:55:00,
2013-01-31 10:00:00,47.0,42.7,30.39,WSW,243,0.0,5.0,85,0.00,,---,0.03,VWS V13.00,2013-01-31 18:00:00,
2013-01-31 10:05:00,47.3,43.0,30.39,SSW,206,0.0,5.0,85,0.00,,---,0.03,VWS V13.00,2013-01-31 18:05:00,
2013-01-31 10:10:00,47.4,43.1,30.39,SSW,205,0.0,3.0,85,0.00,,---,0.03,VWS V13.00,2013-01-31 18:10:00,
2013-01-31 10:15:00,47.6,43.3,30.39,SSW,199,0.0,3.0,85,0.00,,---,0.03,VWS V13.00,2013-01-31 18:15:00,
2013-01-31 10:20:00,47.7,43.4,30.39,SSE,160,0.0,3.0,85,0.00,,---,0.03,VWS V13.00,2013-01-31 18:20:00,
2013-01-31 10:25:00,47.9,43.6,30.39,SSW,210,0.0,3.0,85,0.00,,---,0.03,VWS V13.00,2013-01-31 18:25:00,
2013-01-31 10:30:00,47.9,43.6,30.39,SSW,210,0.0,3.0,85,0.00,,---,0.03,VWS V13.00,2013-01-31 18:30:00,
2013-01-31 10:35:00,48.0,43.7,30.39,SSW,203,0.0,3.0,85,0.00,,---,0.03,VWS V13.00,2013-01-31 18:35:00,
2013-01-31 10:40:00,48.0,44.0,30.39,SSW,203,0.0,0.0,86,0.00,,---,0.03,VWS V13.00,2013-01-31 18:40:00,
2013-01-31 10:45:00,48.0,44.0,30.39,SSW,203,0.0,0.0,86,0.00,,---,0.03,VWS V13.00,2013-01-31 18:45:00,
2013-01-31 10:50:00,48.2,44.2,30.39,SSW,203,0.0,0.0,86,0.00,,---,0.03,VWS V13.00,2013-01-31 18:50:00,
2013-01-31 10:55:00,48.2,43.9,30.38,SSW,212,0.0,2.0,85,0.00,,---,0.03,VWS V13.00,2013-01-31 18:55:00,
2013-01-31 11:00:00,48.2,43.9,30.38,SSW,212,0.0,2.0,85,0.00,,---,0.03,VWS V13.00,2013-01-31 19:00:00,
2013-01-31 11:05:00,48.3,44.3,30.38,SSW,212,0.0,2.0,86,0.00,,---,0.03,VWS V13.00,2013-01-31 19:05:00,
2013-01-31 11:10:00,48.2,44.5,30.39,SSW,212,0.0,0.0,87,0.00,,---,0.03,VWS V13.00,2013-01-31 19:10:00,
2013-01-31 11:15:00,48.2,44.5,30.39,SSW,212,0.0,0.0,87,0.00,,---,0.03,VWS V13.00,2013-01-31 19:15:00,
2013-01-31 11:20:00,48.0,44.3,30.39,SSW,212,0.0,0.0,87,0.01,,---,0.04,VWS V13.00,2013-01-31 19:20:00,
2013-01-31 11:25:00,47.9,44.5,30.38,WSW,243,0.0,2.0,88,0.01,,---,0.04,VWS V13.00,2013-01-31 19:25:00,
2013-01-31 11:30:00,47.7,44.3,30.38,WSW,243,0.0,2.0,88,0.01,,---,0.04,VWS V13.00,2013-01-31 19:30:00,
2013-01-31 11:35:00,47.6,44.2,30.38,WSW,243,0.0,2.0,88,0.01,,---,0.04,VWS V13.00,2013-01-31 19:35:00,
2013-01-31 11:40:00,47.6,44.5,30.38,WSW,243,0.0,0.0,89,0.01,,---,0.04,VWS V13.00,2013-01-31 19:40:00,
2013-01-31 11:45:00,47.4,44.3,30.38,WSW,243,0.0,0.0,89,0.01,,---,0.04,VWS V13.00,2013-01-31 19:45:00,
2013-01-31 11:50:00,47.3,44.2,30.38,WSW,243,0.0,0.0,89,0.01,,---,0.04,VWS V13.00,2013-01-31 19:50:00,
2013-01-31 11:55:00,47.3,44.2,30.38,SW,215,0.0,2.0,89,0.02,,---,0.05,VWS V13.00,2013-01-31 19:55:00,
2013-01-31 12:00:00,47.1,44.0,30.38,SW,223,0.0,3.0,89,0.02,,---,0.05,VWS V13.00,2013-01-31 20:00:00,
2013-01-31 12:05:00,47.1,44.0,30.38,SSW,205,1.0,3.0,89,0.02,,---,0.05,VWS V13.00,2013-01-31 20:05:00,
2013-01-31 12:10:00,47.1,44.0,30.38,SSW,205,0.0,1.0,89,0.02,,---,0.05,VWS V13.00,2013-01-31 20:10:00,
2013-01-31 12:15:00,47.0,43.9,30.38,SSW,198,0.0,1.0,89,0.02,,---,0.05,VWS V13.00,2013-01-31 20:15:00,
2013-01-31 12:20:00,47.0,44.2,30.38,SW,222,0.0,2.0,90,0.02,,---,0.05,VWS V13.00,2013-01-31 20:20:00,
2013-01-31 12:25:00,47.0,44.2,30.37,SW,222,0.0,2.0,90,0.02,,---,0.05,VWS V13.00,2013-01-31 20:25:00,
2013-01-31 12:30:00,47.0,44.2,30.37,SW,222,0.0,2.0,90,0.02,,---,0.05,VWS V13.00,2013-01-31 20:30:00,
2013-01-31 12:35:00,47.0,44.2,30.37,SW,226,0.0,2.0,90,0.02,,---,0.05,VWS V13.00,2013-01-31 20:35:00,
2013-01-31 12:40:00,47.0,44.2,30.36,SSW,213,0.0,1.0,90,0.01,,---,0.05,VWS V13.00,2013-01-31 20:40:00,
2013-01-31 12:45:00,47.0,44.2,30.36,SSW,213,0.0,1.0,90,0.01,,---,0.05,VWS V13.00,2013-01-31 20:45:00,
2013-01-31 12:50:00,47.0,44.2,30.36,SSW,213,0.0,1.0,90,0.01,,---,0.05,VWS V13.00,2013-01-31 20:50:00,
2013-01-31 12:55:00,47.0,44.5,30.37,SSW,213,0.0,1.0,91,0.01,,---,0.05,VWS V13.00,2013-01-31 20:55:00,
2013-01-31 13:00:00,47.0,44.5,30.37,SSW,213,0.0,1.0,91,0.01,,---,0.05,VWS V13.00,2013-01-31 21:00:00,
2013-01-31 13:05:00,47.1,44.6,30.37,SSW,213,0.0,1.0,91,0.01,,---,0.05,VWS V13.00,2013-01-31 21:05:00,
2013-01-31 13:10:00,47.1,44.6,30.36,SSW,213,0.0,0.0,91,0.00,,---,0.05,VWS V13.00,2013-01-31 21:10:00,
2013-01-31 13:15:00,47.1,44.9,30.36,SSW,213,0.0,0.0,92,0.00,,---,0.05,VWS V13.00,2013-01-31 21:15:00,
2013-01-31 13:20:00,47.3,45.1,30.36,SSW,213,0.0,0.0,92,0.00,,---,0.05,VWS V13.00,2013-01-31 21:20:00,
2013-01-31 13:25:00,47.4,45.2,30.36,SSW,213,0.0,0.0,92,0.00,,---,0.05,VWS V13.00,2013-01-31 21:25:00,
2013-01-31 13:30:00,47.4,45.2,30.36,SSW,213,0.0,0.0,92,0.00,,---,0.05,VWS V13.00,2013-01-31 21:30:00,
2013-01-31 13:35:00,47.6,45.4,30.36,SSW,213,0.0,2.0,92,0.00,,---,0.05,VWS V13.00,2013-01-31 21:35:00,
2013-01-31 13:40:00,47.7,45.5,30.35,South,181,2.0,2.0,92,0.00,,---,0.05,VWS V13.00,2013-01-31 21:40:00,
2013-01-31 13:45:00,47.7,45.2,30.35,SW,227,0.0,6.0,91,0.00,,---,0.05,VWS V13.00,2013-01-31 21:45:00,
2013-01-31 13:50:00,47.7,44.9,30.35,SSW,199,3.0,6.0,90,0.00,,---,0.05,VWS V13.00,2013-01-31 21:50:00,
2013-01-31 13:55:00,47.9,44.5,30.35,SSW,199,0.0,6.0,88,0.00,,---,0.05,VWS V13.00,2013-01-31 21:55:00,
2013-01-31 13:59:00,48.0,44.6,30.35,SSW,198,0.0,10.0,88,0.00,,---,0.05,VWS V13.00,2013-01-31 21:59:00,
2013-01-31 14:04:00,47.9,44.5,30.35,SSW,209,2.0,10.0,88,0.00,,---,0.05,VWS V13.00,2013-01-31 22:04:00,
2013-01-31 14:09:00,47.7,43.7,30.34,South,186,2.0,10.0,86,0.00,,---,0.05,VWS V13.00,2013-01-31 22:09:00,
2013-01-31 14:15:00,47.7,43.7,30.34,SSW,210,1.0,10.0,86,0.00,,---,0.05,VWS V13.00,2013-01-31 22:15:00,
2013-01-31 14:20:00,47.9,43.9,30.34,South,182,2.0,10.0,86,0.00,,---,0.05,VWS V13.00,2013-01-31 22:20:00,
2013-01-31 14:25:00,48.0,44.3,30.34,SW,215,0.0,10.0,87,0.00,,---,0.05,VWS V13.00,2013-01-31 22:25:00,
2013-01-31 14:30:00,48.0,44.3,30.34,SSW,209,0.0,10.0,87,0.00,,---,0.05,VWS V13.00,2013-01-31 22:30:00,
2013-01-31 14:34:00,48.2,44.5,30.34,SW,233,3.0,10.0,87,0.00,,---,0.05,VWS V13.00,2013-01-31 22:34:00,
2013-01-31 14:39:00,48.3,44.6,30.33,SSW,206,3.0,3.0,87,0.00,,---,0.05,VWS V13.00,2013-01-31 22:39:00,
2013-01-31 14:44:00,48.3,44.6,30.33,SSE,154,0.0,6.0,87,0.00,,---,0.05,VWS V13.00,2013-01-31 22:44:00,
2013-01-31 14:49:00,48.5,44.2,30.33,SW,227,3.0,6.0,85,0.00,,---,0.05,VWS V13.00,2013-01-31 22:49:00,
2013-01-31 14:54:00,48.5,44.2,30.33,WSW,244,2.0,6.0,85,0.00,,---,0.05,VWS V13.00,2013-01-31 22:54:00,
2013-01-31 14:59:00,48.5,44.2,30.33,South,189,2.0,6.0,85,0.00,,---,0.05,VWS V13.00,2013-01-31 22:59:00,
2013-01-31 15:04:00,48.6,44.3,30.33,SSW,202,2.0,6.0,85,0.00,,---,0.05,VWS V13.00,2013-01-31 23:04:00,
2013-01-31 15:09:00,48.6,44.3,30.33,SSW,196,0.0,3.0,85,0.00,,---,0.05,VWS V13.00,2013-01-31 23:09:00,
2013-01-31 15:14:00,48.8,44.5,30.33,SSE,164,0.0,3.0,85,0.00,,---,0.05,VWS V13.00,2013-01-31 23:14:00,
2013-01-31 15:19:00,48.8,44.5,30.33,SSW,212,0.0,5.0,85,0.00,,---,0.05,VWS V13.00,2013-01-31 23:19:00,
2013-01-31 15:24:00,48.8,44.5,30.33,SE,133,0.0,5.0,85,0.00,,---,0.05,VWS V13.00,2013-01-31 23:24:00,
2013-01-31 15:29:00,48.9,44.3,30.33,SSE,162,0.0,6.0,84,0.00,,---,0.05,VWS V13.00,2013-01-31 23:29:00,
2013-01-31 15:34:00,48.9,44.0,30.33,SSW,209,0.0,8.0,83,0.00,,---,0.05,VWS V13.00,2013-01-31 23:34:00,
2013-01-31 15:39:00,49.1,44.2,30.33,South,175,0.0,2.0,83,0.00,,---,0.05,VWS V13.00,2013-01-31 23:39:00,
2013-01-31 15:44:00,49.1,44.2,30.33,SSW,196,0.0,3.0,83,0.00,,---,0.05,VWS V13.00,2013-01-31 23:44:00,
2013-01-31 15:49:00,49.2,44.3,30.33,SW,216,1.0,8.0,83,0.00,,---,0.05,VWS V13.00,2013-01-31 23:49:00,
2013-01-31 15:54:00,49.2,44.3,30.33,NNW,335,2.0,8.0,83,0.00,,---,0.05,VWS V13.00,2013-01-31 23:54:00,
2013-01-31 15:59:00,49.1,44.2,30.33,SW,230,0.0,8.0,83,0.00,,---,0.05,VWS V13.00,2013-01-31 23:59:00,
2013-01-31 16:04:00,48.9,44.0,30.33,SW,222,0.0,10.0,83,0.00,,---,0.05,VWS V13.00,2013-02-01 00:04:00,
2013-01-31 16:09:00,48.8,44.2,30.33,South,184,0.0,3.0,84,0.00,,---,0.05,VWS V13.00,2013-02-01 00:09:00,
2013-01-31 16:14:00,48.6,44.0,30.33,South,179,0.0,6.0,84,0.00,,---,0.05,VWS V13.00,2013-02-01 00:14:00,
2013-01-31 16:19:00,48.5,44.2,30.33,SSW,213,1.0,6.0,85,0.00,,---,0.05,VWS V13.00,2013-02-01 00:19:00,
2013-01-31 16:24:00,48.5,44.2,30.32,SSW,198,0.0,6.0,85,0.00,,---,0.05,VWS V13.00,2013-02-01 00:24:00,
2013-01-31 16:29:00,48.3,44.0,30.32,SW,223,0.0,6.0,85,0.00,,---,0.05,VWS V13.00,2013-02-01 00:29:00,
2013-01-31 16:34:00,48.3,44.0,30.32,SSW,200,1.0,6.0,85,0.00,,---,0.05,VWS V13.00,2013-02-01 00:34:00,
2013-01-31 16:39:00,48.2,43.9,30.32,SSE,160,0.0,1.0,85,0.00,,---,0.05,VWS V13.00,2013-02-01 00:39:00,
2013-01-31 16:44:00,48.2,43.9,30.32,SSE,167,0.0,2.0,85,0.00,,---,0.05,VWS V13.00,2013-02-01 00:44:00,
2013-01-31 16:49:00,48.2,43.9,30.32,SW,216,0.0,5.0,85,0.00,,---,0.05,VWS V13.00,2013-02-01 00:49:00,
2013-01-31 16:55:00,48.2,43.9,30.33,South,182,0.0,5.0,85,0.00,,---,0.05,VWS V13.00,2013-02-01 00:55:00,
2013-01-31 16:59:00,48.0,43.7,30.33,SSW,206,0.0,5.0,85,0.00,,---,0.05,VWS V13.00,2013-02-01 00:59:00,
2013-01-31 17:04:00,48.0,43.7,30.33,SSW,198,0.0,5.0,85,0.00,,---,0.05,VWS V13.00,2013-02-01 01:04:00,
2013-01-31 17:09:00,48.0,43.7,30.33,SSW,203,0.0,1.0,85,0.00,,---,0.05,VWS V13.00,2013-02-01 01:09:00,
2013-01-31 17:14:00,48.0,43.7,30.33,SW,234,0.0,1.0,85,0.00,,---,0.05,VWS V13.00,2013-02-01 01:14:00,
2013-01-31 17:19:00,48.0,43.7,30.33,SSW,192,0.0,2.0,85,0.00,,---,0.05,VWS V13.00,2013-02-01 01:19:00,
2013-01-31 17:24:00,48.0,43.7,30.33,SSW,195,0.0,3.0,85,0.00,,---,0.05,VWS V13.00,2013-02-01 01:24:00,
2013-01-31 17:29:00,48.0,43.7,30.33,SW,220,0.0,3.0,85,0.00,,---,0.05,VWS V13.00,2013-02-01 01:29:00,
2013-01-31 17:34:00,48.0,43.7,30.33,SW,220,0.0,3.0,85,0.00,,---,0.05,VWS V13.00,2013-02-01 01:34:00,
2013-01-31 17:39:00,48.0,43.7,30.33,South,175,0.0,0.0,85,0.00,,---,0.05,VWS V13.00,2013-02-01 01:39:00,
2013-01-31 17:44:00,48.0,43.7,30.33,SW,229,0.0,5.0,85,0.00,,---,0.05,VWS V13.00,2013-02-01 01:44:00,
2013-01-31 17:49:00,48.0,43.4,30.33,SW,217,0.0,5.0,84,0.00,,---,0.05,VWS V13.00,2013-02-01 01:49:00,
2013-01-31 17:54:00,48.0,43.4,30.33,SW,226,0.0,5.0,84,0.00,,---,0.05,VWS V13.00,2013-02-01 01:54:00,
2013-01-31 17:59:00,48.0,43.4,30.33,SSW,200,0.0,5.0,84,0.00,,---,0.05,VWS V13.00,2013-02-01 01:59:00,
2013-01-31 18:04:00,48.0,43.4,30.33,SSW,208,0.0,5.0,84,0.00,,---,0.05,VWS V13.00,2013-02-01 02:04:00,
2013-01-31 18:09:00,48.0,43.4,30.33,South,182,0.0,2.0,84,0.00,,---,0.05,VWS V13.00,2013-02-01 02:09:00,
2013-01-31 18:14:00,48.0,43.4,30.33,SSW,213,0.0,2.0,84,0.00,,---,0.05,VWS V13.00,2013-02-01 02:14:00,
2013-01-31 18:19:00,48.0,43.4,30.33,SW,223,0.0,3.0,84,0.00,,---,0.05,VWS V13.00,2013-02-01 02:19:00,
2013-01-31 18:24:00,48.0,43.4,30.33,South,191,1.0,3.0,84,0.00,,---,0.05,VWS V13.00,2013-02-01 02:24:00,
2013-01-31 18:29:00,47.9,43.3,30.33,South,189,0.0,3.0,84,0.00,,---,0.05,VWS V13.00,2013-02-01 02:29:00,
2013-01-31 18:34:00,47.9,43.3,30.33,SSW,205,0.0,3.0,84,0.00,,---,0.05,VWS V13.00,2013-02-01 02:34:00,
2013-01-31 18:39:00,47.9,43.3,30.33,SW,220,0.0,0.0,84,0.00,,---,0.05,VWS V13.00,2013-02-01 02:39:00,
2013-01-31 18:44:00,47.9,43.3,30.33,South,172,0.0,0.0,84,0.00,,---,0.05,VWS V13.00,2013-02-01 02:44:00,
2013-01-31 18:49:00,47.9,43.3,30.33,SW,226,0.0,3.0,84,0.00,,---,0.05,VWS V13.00,2013-02-01 02:49:00,
2013-01-31 18:54:00,47.7,43.1,30.33,South,188,0.0,4.0,84,0.00,,---,0.05,VWS V13.00,2013-02-01 02:54:00,
2013-01-31 18:59:00,47.7,43.4,30.33,South,191,0.0,4.0,85,0.00,,---,0.05,VWS V13.00,2013-02-01 02:59:00,
2013-01-31 19:04:00,47.7,43.4,30.33,South,184,0.0,4.0,85,0.00,,---,0.05,VWS V13.00,2013-02-01 03:04:00,
2013-01-31 19:09:00,47.6,43.3,30.33,South,172,0.0,3.0,85,0.00,,---,0.05,VWS V13.00,2013-02-01 03:09:00,
2013-01-31 19:14:00,47.6,43.3,30.33,SSW,212,2.0,3.0,85,0.00,,---,0.05,VWS V13.00,2013-02-01 03:14:00,
2013-01-31 19:19:00,47.4,43.1,30.33,SSW,212,0.0,3.0,85,0.00,,---,0.05,VWS V13.00,2013-02-01 03:19:00,
2013-01-31 19:24:00,47.4,43.1,30.33,SW,227,0.0,5.0,85,0.00,,---,0.05,VWS V13.00,2013-02-01 03:24:00,
2013-01-31 19:29:00,47.4,43.1,30.33,SSW,202,0.0,5.0,85,0.00,,---,0.05,VWS V13.00,2013-02-01 03:29:00,
2013-01-31 19:34:00,47.4,43.4,30.33,SW,233,0.0,5.0,86,0.00,,---,0.05,VWS V13.00,2013-02-01 03:34:00,
2013-01-31 19:39:00,47.4,43.4,30.33,South,184,0.0,1.0,86,0.00,,---,0.05,VWS V13.00,2013-02-01 03:39:00,
2013-01-31 19:44:00,47.3,43.3,30.33,SW,227,0.0,5.0,86,0.00,,---,0.05,VWS V13.00,2013-02-01 03:44:00,
2013-01-31 19:49:00,47.3,43.3,30.33,SSW,202,0.0,5.0,86,0.00,,---,0.05,VWS V13.00,2013-02-01 03:49:00,
2013-01-31 19:54:00,47.3,43.3,30.33,SSW,203,0.0,5.0,86,0.00,,---,0.05,VWS V13.00,2013-02-01 03:54:00,
2013-01-31 19:59:00,47.3,43.3,30.33,SSW,203,0.0,5.0,86,0.00,,---,0.05,VWS V13.00,2013-02-01 03:59:00,
2013-01-31 20:04:00,47.3,43.6,30.33,SSW,212,0.0,5.0,87,0.00,,---,0.05,VWS V13.00,2013-02-01 04:04:00,
2013-01-31 20:09:00,47.3,43.3,30.33,SW,226,0.0,4.0,86,0.00,,---,0.05,VWS V13.00,2013-02-01 04:09:00,
2013-01-31 20:14:00,47.3,43.3,30.33,South,172,0.0,4.0,86,0.00,,---,0.05,VWS V13.00,2013-02-01 04:14:00,
2013-01-31 20:19:00,47.3,43.3,30.33,South,175,0.0,4.0,86,0.00,,---,0.05,VWS V13.00,2013-02-01 04:19:00,
2013-01-31 20:24:00,47.1,43.1,30.33,SSW,213,0.0,6.0,86,0.00,,---,0.05,VWS V13.00,2013-02-01 04:24:00,
2013-01-31 20:29:00,47.1,43.1,30.33,SW,232,0.0,6.0,86,0.00,,---,0.05,VWS V13.00,2013-02-01 04:29:00,
2013-01-31 20:34:00,47.1,43.1,30.33,SW,220,0.0,6.0,86,0.00,,---,0.05,VWS V13.00,2013-02-01 04:34:00,
2013-01-31 20:39:00,47.1,43.1,30.33,SW,219,0.0,0.0,86,0.00,,---,0.05,VWS V13.00,2013-02-01 04:39:00,
2013-01-31 20:44:00,47.1,43.1,30.33,South,172,0.0,3.0,86,0.00,,---,0.05,VWS V13.00,2013-02-01 04:44:00,
2013-01-31 20:49:00,47.1,43.1,30.33,South,172,0.0,3.0,86,0.00,,---,0.05,VWS V13.00,2013-02-01 04:49:00,
2013-01-31 20:54:00,47.1,43.1,30.33,South,178,0.0,3.0,86,0.00,,---,0.05,VWS V13.00,2013-02-01 04:54:00,
2013-01-31 20:59:00,47.1,43.1,30.33,South,178,0.0,3.0,86,0.00,,---,0.05,VWS V13.00,2013-02-01 04:59:00,
2013-01-31 21:01:00,47.1,43.1,30.33,South,181,0.0,3.0,86,0.00,,---,0.05,VWS V13.00,2013-02-01 05:01:00,
2013-01-31 21:03:00,47.1,43.1,30.33,South,181,0.0,3.0,86,0.00,,---,0.05,VWS V13.00,2013-02-01 05:03:00,
2013-01-31 21:08:00,47.1,43.4,30.34,South,181,0.0,0.0,87,0.00,,---,0.05,VWS V13.00,2013-02-01 05:08:00,
2013-01-31 21:13:00,47.1,43.4,30.34,South,181,0.0,0.0,87,0.00,,---,0.05,VWS V13.00,2013-02-01 05:13:00,
2013-01-31 21:18:00,47.1,43.4,30.34,South,181,0.0,0.0,87,0.00,,---,0.05,VWS V13.00,2013-02-01 05:18:00,
2013-01-31 21:23:00,47.0,43.3,30.33,South,181,0.0,0.0,87,0.00,,---,0.05,VWS V13.00,2013-02-01 05:23:00,
2013-01-31 21:28:00,47.0,43.3,30.33,South,181,0.0,0.0,87,0.00,,---,0.05,VWS V13.00,2013-02-01 05:28:00,
2013-01-31 21:33:00,47.0,43.3,30.33,South,181,0.0,0.0,87,0.00,,---,0.05,VWS V13.00,2013-02-01 05:33:00,
2013-01-31 21:38:00,47.0,43.3,30.33,South,181,0.0,0.0,87,0.00,,---,0.05,VWS V13.00,2013-02-01 05:38:00,
2013-01-31 21:43:00,46.8,43.1,30.33,South,181,0.0,0.0,87,0.00,,---,0.05,VWS V13.00,2013-02-01 05:43:00,
2013-01-31 21:48:00,46.8,43.1,30.33,South,181,0.0,0.0,87,0.00,,---,0.05,VWS V13.00,2013-02-01 05:48:00,
2013-01-31 21:53:00,46.8,43.1,30.33,South,181,0.0,0.0,87,0.00,,---,0.05,VWS V13.00,2013-02-01 05:53:00,
2013-01-31 21:58:00,46.8,43.1,30.33,South,181,0.0,0.0,87,0.00,,---,0.05,VWS V13.00,2013-02-01 05:58:00,
2013-01-31 22:03:00,46.8,43.1,30.33,South,181,0.0,0.0,87,0.00,,---,0.05,VWS V13.00,2013-02-01 06:03:00,
2013-01-31 22:08:00,46.8,43.4,30.33,South,181,0.0,0.0,88,0.00,,---,0.05,VWS V13.00,2013-02-01 06:08:00,
2013-01-31 22:13:00,46.7,43.3,30.33,South,181,0.0,0.0,88,0.00,,---,0.05,VWS V13.00,2013-02-01 06:13:00,
2013-01-31 22:18:00,46.7,43.3,30.33,South,181,0.0,0.0,88,0.00,,---,0.05,VWS V13.00,2013-02-01 06:18:00,
2013-01-31 22:23:00,46.7,43.3,30.34,South,181,0.0,0.0,88,0.00,,---,0.05,VWS V13.00,2013-02-01 06:23:00,
2013-01-31 22:28:00,46.5,43.1,30.34,South,181,0.0,0.0,88,0.00,,---,0.05,VWS V13.00,2013-02-01 06:28:00,
2013-01-31 22:33:00,46.5,43.1,30.34,South,181,0.0,0.0,88,0.00,,---,0.05,VWS V13.00,2013-02-01 06:33:00,
2013-01-31 22:38:00,46.5,43.1,30.34,SSE,164,0.0,0.0,88,0.00,,---,0.05,VWS V13.00,2013-02-01 06:38:00,
2013-01-31 22:43:00,46.5,43.1,30.34,SSE,164,0.0,0.0,88,0.00,,---,0.05,VWS V13.00,2013-02-01 06:43:00,
2013-01-31 22:48:00,46.5,43.1,30.34,SSE,164,0.0,1.0,88,0.00,,---,0.05,VWS V13.00,2013-02-01 06:48:00,
2013-01-31 22:53:00,46.4,43.3,30.34,SSE,164,0.0,1.0,89,0.00,,---,0.05,VWS V13.00,2013-02-01 06:53:00,
2013-01-31 22:58:00,46.4,43.3,30.34,SSE,164,0.0,1.0,89,0.00,,---,0.05,VWS V13.00,2013-02-01 06:58:00,
2013-01-31 23:03:00,46.4,43.3,30.34,South,174,0.0,3.0,89,0.00,,---,0.05,VWS V13.00,2013-02-01 07:03:00,
2013-01-31 23:08:00,46.4,43.3,30.34,South,174,0.0,0.0,89,0.00,,---,0.05,VWS V13.00,2013-02-01 07:08:00,
2013-01-31 23:13:00,46.2,43.1,30.34,South,174,0.0,1.0,89,0.00,,---,0.05,VWS V13.00,2013-02-01 07:13:00,
2013-01-31 23:18:00,46.2,43.1,30.34,South,174,0.0,1.0,89,0.00,,---,0.05,VWS V13.00,2013-02-01 07:18:00,
2013-01-31 23:23:00,46.2,43.1,30.34,South,174,0.0,1.0,89,0.00,,---,0.05,VWS V13.00,2013-02-01 07:23:00,
2013-01-31 23:28:00,46.2,43.1,30.34,South,174,0.0,1.0,89,0.00,,---,0.05,VWS V13.00,2013-02-01 07:28:00,
2013-01-31 23:33:00,46.2,43.1,30.34,South,174,0.0,1.0,89,0.00,,---,0.05,VWS V13.00,2013-02-01 07:33:00,
2013-01-31 23:38:00,46.2,43.1,30.35,South,174,0.0,0.0,89,0.00,,---,0.05,VWS V13.00,2013-02-01 07:38:00,
2013-01-31 23:43:00,46.2,43.1,30.35,South,174,0.0,0.0,89,0.00,,---,0.05,VWS V13.00,2013-02-01 07:43:00,
2013-01-31 23:48:00,46.2,43.1,30.35,South,174,0.0,0.0,89,0.00,,---,0.05,VWS V13.00,2013-02-01 07:48:00,
2013-01-31 23:53:00,46.2,43.1,30.35,South,174,0.0,0.0,89,0.00,,---,0.05,VWS V13.00,2013-02-01 07:53:00,
2013-01-31 23:58:00,46.1,43.0,30.35,South,174,0.0,0.0,89,0.00,,---,0.05,VWS V13.00,2013-02-01 07:58:00,